Погода в Михайловском

Россия / Ярославская область     57°47′00″N   39°44′07″E
темп.,
°C
ветер,
м/с
пор.,
м/с
влажн.,
%
обл.,
%
осадки,
мм/ч
давл.,
гПа
погр.,
м
13 апреля, вт
вт1300:00+8юв51189100 0.0 1030423
03:00+6юв4895100 0.0 1029228
06:00+5вюв489785 0.0 1028176
09:00+10ююв41079100 0.0 1026365
12:00+17ю6115397 0.0 1025782
15:00+19ю7104499 0.0 10241340
18:00+17ю51051100 0.0 1023271
21:00+12ю496665 0.0 1024139
14 апреля, ср
ср1400:00+10ю3107188 0.0 1023147
03:00+8ю310735 0.0 1023162
06:00+7ю4117622 0.0 1022186
09:00+13ю510558 0.0 1022373
12:00+17ю694266 0.0 1020865
15:00+19ю6837100 0.0 10191411
18:00+16ю3748100 0.0 1018162
21:00+12ю3358100 0.0 101926
15 апреля, чт
чт1500:00+10ююз226439 0.0 101913
03:00+8з116993 0.0 101910
06:00+8ссв1171100 0.0 101910
09:00+11св2363100 0.0 1020228
12:00+14св3357100 0.0 1019673
15:00+14ссв5568100 0.0 1020802
18:00+10ссв6977100 0.2 1021503
21:00+7св61282100 0.2 1022497
16 апреля, пт
пт1600:00+6св5128485 0.0 1023458
03:00+5св5108385 0.0 1023414
06:00+4св5108693 0.0 1024396
09:00+6св69605 0.0 1025600
12:00+10св67445 0.0 10251065
15:00+11св673559 0.0 10261359
18:00+10св584271 0.0 1026903
21:00+6ссв4116099 0.0 1028255
17 апреля, сб
сб1700:00+4св4116421 0.0 1029245
03:00+2св38730 0.0 1030162
06:00+1св410735 0.0 1032247
09:00+6св68613 0.0 1033658
12:00+8св67465 0.0 10331381
15:00+9св67325 0.0 10331564
18:00+8св564031 0.0 10331131
21:00+4св375768 0.0 1034128